Time,TemperatureF,DewpointF,PressureIn,WindDirection,WindDirectionDegrees,WindSpeedMPH,WindSpeedGustMPH,Humidity,HourlyPrecipIn,Conditions,Clouds,dailyrainin,SoftwareType,DateUTC
2013-12-27 00:00:00,25.7,23.2,30.24,WSW,244,0.0,0.0,90,0.00,,,0.13,Wunderground v.1.15,2013-12-27 06:00:00,
2013-12-27 00:05:00,25.5,23.0,30.24,WSW,244,0.0,0.0,90,0.00,,,0.00,Wunderground v.1.15,2013-12-27 06:05:00,
2013-12-27 00:10:00,25.2,22.7,30.24,WSW,244,0.0,0.0,90,0.00,,,0.00,Wunderground v.1.15,2013-12-27 06:10:00,
2013-12-27 00:15:00,24.8,22.0,30.24,WSW,244,0.0,0.0,89,0.00,,,0.00,Wunderground v.1.15,2013-12-27 06:15:00,
2013-12-27 00:20:00,24.3,21.5,30.24,WSW,244,0.0,0.0,89,0.00,,,0.00,Wunderground v.1.15,2013-12-27 06:20:00,
2013-12-27 00:25:00,24.0,21.2,30.24,WSW,244,0.0,0.0,89,0.00,,,0.00,Wunderground v.1.15,2013-12-27 06:25:00,
2013-12-27 00:35:00,24.2,21.7,30.24,WSW,244,0.0,0.0,90,0.00,,,0.00,Wunderground v.1.15,2013-12-27 06:35:00,
2013-12-27 00:40:00,24.1,21.6,30.24,WSW,244,0.0,0.0,90,0.00,,,0.00,Wunderground v.1.15,2013-12-27 06:40:00,
2013-12-27 00:45:00,23.9,21.4,30.24,WSW,244,0.0,0.0,90,0.00,,,0.00,Wunderground v.1.15,2013-12-27 06:45:00,
2013-12-27 00:50:00,23.6,21.1,30.24,WSW,244,0.0,0.0,90,0.00,,,0.00,Wunderground v.1.15,2013-12-27 06:50:00,
2013-12-27 00:55:00,23.4,20.9,30.24,WSW,244,0.0,0.0,90,0.00,,,0.00,Wunderground v.1.15,2013-12-27 06:55:00,
2013-12-27 01:00:00,23.4,21.2,30.25,WSW,244,0.0,0.0,91,0.00,,,0.00,Wunderground v.1.15,2013-12-27 07:00:00,
2013-12-27 01:10:00,23.3,21.1,30.25,WSW,244,0.0,0.0,91,0.00,,,0.00,Wunderground v.1.15,2013-12-27 07:10:00,
2013-12-27 01:15:00,23.4,21.4,30.24,WSW,244,0.0,0.0,92,0.00,,,0.00,Wunderground v.1.15,2013-12-27 07:15:00,
2013-12-27 01:20:00,23.8,21.8,30.24,WSW,244,0.0,0.0,92,0.00,,,0.00,Wunderground v.1.15,2013-12-27 07:20:00,
2013-12-27 01:25:00,23.9,21.9,30.25,WSW,244,0.0,0.0,92,0.00,,,0.00,Wunderground v.1.15,2013-12-27 07:25:00,
2013-12-27 01:30:00,23.8,21.8,30.25,WSW,244,0.0,0.0,92,0.00,,,0.00,Wunderground v.1.15,2013-12-27 07:30:00,
2013-12-27 01:35:00,23.7,21.7,30.25,WSW,244,0.0,0.0,92,0.00,,,0.00,Wunderground v.1.15,2013-12-27 07:35:00,
2013-12-27 01:45:00,23.7,21.7,30.24,WSW,244,0.0,0.0,92,0.00,,,0.00,Wunderground v.1.15,2013-12-27 07:45:00,
2013-12-27 01:50:00,23.4,21.4,30.24,WSW,244,0.0,0.0,92,0.00,,,0.00,Wunderground v.1.15,2013-12-27 07:50:00,
2013-12-27 01:55:00,23.2,21.2,30.25,WSW,244,0.0,0.0,92,0.00,,,0.00,Wunderground v.1.15,2013-12-27 07:55:00,
2013-12-27 02:00:00,23.3,21.3,30.25,WSW,244,0.0,0.0,92,0.00,,,0.00,Wunderground v.1.15,2013-12-27 08:00:00,
2013-12-27 02:05:00,23.2,21.2,30.25,WSW,244,0.0,0.0,92,0.00,,,0.00,Wunderground v.1.15,2013-12-27 08:05:00,
2013-12-27 02:10:00,23.1,21.1,30.26,WSW,244,0.0,0.0,92,0.00,,,0.00,Wunderground v.1.15,2013-12-27 08:10:00,
2013-12-27 02:15:00,23.0,21.0,30.26,WSW,244,0.0,0.0,92,0.00,,,0.00,Wunderground v.1.15,2013-12-27 08:15:00,
2013-12-27 02:25:00,22.2,20.2,30.26,WSW,244,0.0,0.0,92,0.00,,,0.00,Wunderground v.1.15,2013-12-27 08:25:00,
2013-12-27 02:30:00,21.7,19.7,30.26,WSW,241,0.0,0.0,92,0.00,,,0.00,Wunderground v.1.15,2013-12-27 08:30:00,
2013-12-27 02:35:00,21.4,19.4,30.26,WSW,241,0.0,0.0,92,0.00,,,0.00,Wunderground v.1.15,2013-12-27 08:35:00,
2013-12-27 02:40:00,21.4,19.4,30.26,WSW,241,0.0,0.0,92,0.00,,,0.00,Wunderground v.1.15,2013-12-27 08:40:00,
2013-12-27 02:45:00,21.2,19.2,30.26,WSW,241,0.0,0.0,92,0.00,,,0.00,Wunderground v.1.15,2013-12-27 08:45:00,
2013-12-27 02:55:00,20.7,18.7,30.26,WSW,241,0.0,0.0,92,0.00,,,0.00,Wunderground v.1.15,2013-12-27 08:55:00,
2013-12-27 03:00:00,20.5,18.5,30.26,SW,223,0.0,0.0,92,0.00,,,0.00,Wunderground v.1.15,2013-12-27 09:00:00,
2013-12-27 03:05:00,20.4,18.7,30.26,SW,223,0.0,0.0,93,0.00,,,0.00,Wunderground v.1.15,2013-12-27 09:05:00,
2013-12-27 03:10:00,20.3,18.3,30.27,SSW,211,0.0,0.0,92,0.00,,,0.00,Wunderground v.1.15,2013-12-27 09:10:00,
2013-12-27 03:20:00,20.8,19.1,30.26,SW,229,1.0,1.0,93,0.00,,,0.00,Wunderground v.1.15,2013-12-27 09:20:00,
2013-12-27 03:25:00,20.8,19.1,30.26,SSW,211,1.0,1.0,93,0.00,,,0.00,Wunderground v.1.15,2013-12-27 09:25:00,
2013-12-27 03:30:00,20.6,18.9,30.26,SSW,208,1.0,1.0,93,0.00,,,0.00,Wunderground v.1.15,2013-12-27 09:30:00,
2013-12-27 03:35:00,20.6,18.9,30.26,SW,221,0.0,1.0,93,0.00,,,0.00,Wunderground v.1.15,2013-12-27 09:35:00,
2013-12-27 03:40:00,20.7,19.0,30.26,SW,221,0.0,0.0,93,0.00,,,0.00,Wunderground v.1.15,2013-12-27 09:40:00,
2013-12-27 03:45:00,20.8,19.1,30.26,SW,221,0.0,0.0,93,0.00,,,0.00,Wunderground v.1.15,2013-12-27 09:45:00,
2013-12-27 03:50:00,21.1,19.4,30.25,SW,221,0.0,0.0,93,0.00,,,0.00,Wunderground v.1.15,2013-12-27 09:50:00,
2013-12-27 03:55:00,21.1,19.4,30.26,SW,221,0.0,0.0,93,0.00,,,0.00,Wunderground v.1.15,2013-12-27 09:55:00,
2013-12-27 04:05:00,21.0,19.3,30.26,SW,221,0.0,0.0,93,0.00,,,0.00,Wunderground v.1.15,2013-12-27 10:05:00,
2013-12-27 04:10:00,21.0,19.3,30.26,SW,236,0.0,0.0,93,0.00,,,0.00,Wunderground v.1.15,2013-12-27 10:10:00,
2013-12-27 04:15:00,21.3,19.6,30.26,SW,236,0.0,0.0,93,0.00,,,0.00,Wunderground v.1.15,2013-12-27 10:15:00,
2013-12-27 04:25:00,21.7,20.0,30.26,SW,236,0.0,0.0,93,0.00,,,0.00,Wunderground v.1.15,2013-12-27 10:25:00,
2013-12-27 04:30:00,21.8,20.1,30.26,SW,236,0.0,0.0,93,0.00,,,0.00,Wunderground v.1.15,2013-12-27 10:30:00,
2013-12-27 04:35:00,21.9,20.2,30.26,SW,236,0.0,0.0,93,0.00,,,0.00,Wunderground v.1.15,2013-12-27 10:35:00,
2013-12-27 04:40:00,21.8,20.1,30.26,SW,236,0.0,0.0,93,0.00,,,0.00,Wunderground v.1.15,2013-12-27 10:40:00,
2013-12-27 04:45:00,21.8,20.1,30.26,SW,236,0.0,0.0,93,0.00,,,0.00,Wunderground v.1.15,2013-12-27 10:45:00,
2013-12-27 04:50:00,21.9,20.2,30.26,SW,236,0.0,0.0,93,0.00,,,0.00,Wunderground v.1.15,2013-12-27 10:50:00,
2013-12-27 05:00:00,22.2,20.5,30.26,SW,234,0.0,0.0,93,0.00,,,0.00,Wunderground v.1.15,2013-12-27 11:00:00,
2013-12-27 05:05:00,22.3,20.6,30.26,SW,234,0.0,0.0,93,0.00,,,0.00,Wunderground v.1.15,2013-12-27 11:05:00,
2013-12-27 05:10:00,22.3,20.6,30.26,SW,235,0.0,0.0,93,0.00,,,0.00,Wunderground v.1.15,2013-12-27 11:10:00,
2013-12-27 05:15:00,22.2,20.5,30.26,SW,234,0.0,0.0,93,0.00,,,0.00,Wunderground v.1.15,2013-12-27 11:15:00,
2013-12-27 05:20:00,22.3,20.6,30.26,SW,235,0.0,0.0,93,0.00,,,0.00,Wunderground v.1.15,2013-12-27 11:20:00,
2013-12-27 05:25:00,22.6,20.9,30.26,SW,234,0.0,0.0,93,0.00,,,0.00,Wunderground v.1.15,2013-12-27 11:25:00,
2013-12-27 05:30:00,22.7,21.0,30.26,SW,235,0.0,0.0,93,0.00,,,0.00,Wunderground v.1.15,2013-12-27 11:30:00,
2013-12-27 05:35:00,22.8,21.1,30.26,SW,234,0.0,0.0,93,0.00,,,0.00,Wunderground v.1.15,2013-12-27 11:35:00,
2013-12-27 05:40:00,23.0,21.3,30.26,SW,235,0.0,0.0,93,0.00,,,0.00,Wunderground v.1.15,2013-12-27 11:40:00,
2013-12-27 05:50:00,23.2,21.5,30.25,SW,235,0.0,0.0,93,0.00,,,0.00,Wunderground v.1.15,2013-12-27 11:50:00,
2013-12-27 05:55:00,23.2,21.5,30.25,SW,234,0.0,0.0,93,0.00,,,0.00,Wunderground v.1.15,2013-12-27 11:55:00,
2013-12-27 06:00:00,23.0,21.0,30.26,SW,235,0.0,0.0,92,0.00,,,0.00,Wunderground v.1.15,2013-12-27 12:00:00,
2013-12-27 06:05:00,22.8,20.8,30.26,SW,235,0.0,0.0,92,0.00,,,0.00,Wunderground v.1.15,2013-12-27 12:05:00,
2013-12-27 06:10:00,22.7,20.7,30.26,SW,234,0.0,0.0,92,0.00,,,0.00,Wunderground v.1.15,2013-12-27 12:10:00,
2013-12-27 06:15:00,22.6,20.6,30.26,SW,235,0.0,0.0,92,0.00,,,0.00,Wunderground v.1.15,2013-12-27 12:15:00,
2013-12-27 06:20:00,22.6,20.9,30.27,SW,234,0.0,0.0,93,0.00,,,0.00,Wunderground v.1.15,2013-12-27 12:20:00,
2013-12-27 06:30:00,22.8,21.1,30.26,SW,235,0.0,0.0,93,0.00,,,0.00,Wunderground v.1.15,2013-12-27 12:30:00,
2013-12-27 06:35:00,22.8,21.1,30.26,SW,235,0.0,0.0,93,0.00,,,0.00,Wunderground v.1.15,2013-12-27 12:35:00,
2013-12-27 06:45:00,22.7,21.0,30.27,SW,234,0.0,0.0,93,0.00,,,0.00,Wunderground v.1.15,2013-12-27 12:45:00,
2013-12-27 06:50:00,22.7,21.0,30.26,SW,235,0.0,0.0,93,0.00,,,0.00,Wunderground v.1.15,2013-12-27 12:50:00,
2013-12-27 06:55:00,22.9,21.2,30.27,SW,235,0.0,0.0,93,0.00,,,0.00,Wunderground v.1.15,2013-12-27 12:55:00,
2013-12-27 07:00:00,23.1,21.4,30.27,SW,235,0.0,0.0,93,0.00,,,0.00,Wunderground v.1.15,2013-12-27 13:00:00,
2013-12-27 07:05:00,23.2,21.5,30.27,SW,235,0.0,0.0,93,0.00,,,0.00,Wunderground v.1.15,2013-12-27 13:05:00,
2013-12-27 07:10:00,23.0,21.0,30.27,SW,235,0.0,0.0,92,0.00,,,0.00,Wunderground v.1.15,2013-12-27 13:10:00,
2013-12-27 07:15:00,22.8,20.8,30.27,SW,235,0.0,0.0,92,0.00,,,0.00,Wunderground v.1.15,2013-12-27 13:15:00,
2013-12-27 07:25:00,22.0,20.0,30.26,SW,235,0.0,0.0,92,0.00,,,0.00,Wunderground v.1.15,2013-12-27 13:25:00,
2013-12-27 07:30:00,21.7,19.7,30.26,SW,234,0.0,0.0,92,0.00,,,0.00,Wunderground v.1.15,2013-12-27 13:30:00,
2013-12-27 07:35:00,21.3,19.3,30.26,SW,235,0.0,0.0,92,0.00,,,0.00,Wunderground v.1.15,2013-12-27 13:35:00,
2013-12-27 07:40:00,20.8,18.8,30.26,SW,235,0.0,0.0,92,0.00,,,0.00,Wunderground v.1.15,2013-12-27 13:40:00,
2013-12-27 07:45:00,20.4,18.4,30.26,SW,235,0.0,0.0,92,0.00,,,0.00,Wunderground v.1.15,2013-12-27 13:45:00,
2013-12-27 07:50:00,20.2,18.2,30.26,SW,235,0.0,0.0,92,0.00,,,0.00,Wunderground v.1.15,2013-12-27 13:50:00,
2013-12-27 07:55:00,20.3,18.6,30.26,SW,234,0.0,0.0,93,0.00,,,0.00,Wunderground v.1.15,2013-12-27 13:55:00,
2013-12-27 08:00:00,20.4,18.7,30.26,SW,235,0.0,0.0,93,0.00,,,0.00,Wunderground v.1.15,2013-12-27 14:00:00,
2013-12-27 08:10:00,20.4,18.7,30.26,SW,234,0.0,0.0,93,0.00,,,0.00,Wunderground v.1.15,2013-12-27 14:10:00,
2013-12-27 08:15:00,20.4,18.7,30.26,SSW,203,0.0,0.0,93,0.00,,,0.00,Wunderground v.1.15,2013-12-27 14:15:00,
2013-12-27 08:20:00,20.5,18.8,30.26,SSW,209,0.0,0.0,93,0.00,,,0.00,Wunderground v.1.15,2013-12-27 14:20:00,
2013-12-27 08:25:00,20.7,19.0,30.26,SSW,208,0.0,0.0,93,0.00,,,0.00,Wunderground v.1.15,2013-12-27 14:25:00,
2013-12-27 08:30:00,20.7,19.0,30.26,SSW,207,1.0,1.0,93,0.00,,,0.00,Wunderground v.1.15,2013-12-27 14:30:00,
2013-12-27 08:35:00,20.9,19.2,30.26,SSW,203,1.0,1.0,93,0.00,,,0.00,Wunderground v.1.15,2013-12-27 14:35:00,
2013-12-27 08:40:00,21.2,19.5,30.26,SSW,200,2.0,2.0,93,0.00,,,0.00,Wunderground v.1.15,2013-12-27 14:40:00,
2013-12-27 08:50:00,21.7,20.0,30.26,SW,215,1.0,3.0,93,0.00,,,0.00,Wunderground v.1.15,2013-12-27 14:50:00,
2013-12-27 08:55:00,21.9,20.2,30.26,SW,218,1.0,3.0,93,0.00,,,0.00,Wunderground v.1.15,2013-12-27 14:55:00,
2013-12-27 09:00:00,22.1,20.1,30.26,SW,227,0.0,0.0,92,0.00,,,0.00,Wunderground v.1.15,2013-12-27 15:00:00,
2013-12-27 09:05:00,22.3,20.3,30.26,SSW,209,1.0,1.0,92,0.00,,,0.00,Wunderground v.1.15,2013-12-27 15:05:00,
2013-12-27 09:10:00,22.5,20.5,30.26,SSW,196,2.0,2.0,92,0.00,,,0.00,Wunderground v.1.15,2013-12-27 15:10:00,
2013-12-27 09:20:00,23.0,20.8,30.26,SW,225,3.0,3.0,91,0.00,,,0.00,Wunderground v.1.15,2013-12-27 15:20:00,
2013-12-27 09:25:00,23.1,20.6,30.26,SW,221,2.0,3.0,90,0.00,,,0.00,Wunderground v.1.15,2013-12-27 15:25:00,
2013-12-27 09:30:00,23.4,20.9,30.26,SSW,206,2.0,5.0,90,0.00,,,0.00,Wunderground v.1.15,2013-12-27 15:30:00,
2013-12-27 09:35:00,23.6,21.1,30.26,SW,214,2.0,5.0,90,0.00,,,0.00,Wunderground v.1.15,2013-12-27 15:35:00,
2013-12-27 09:40:00,23.8,21.0,30.26,SSW,206,3.0,3.0,89,0.00,,,0.00,Wunderground v.1.15,2013-12-27 15:40:00,
2013-12-27 09:45:00,24.3,21.5,30.26,SSW,203,1.0,3.0,89,0.00,,,0.00,Wunderground v.1.15,2013-12-27 15:45:00,
2013-12-27 09:50:00,24.7,21.7,30.26,SSW,207,1.0,2.0,88,0.00,,,0.00,Wunderground v.1.15,2013-12-27 15:50:00,
2013-12-27 10:00:00,25.8,22.5,30.25,SW,227,1.0,1.0,87,0.00,,,0.00,Wunderground v.1.15,2013-12-27 16:00:00,
2013-12-27 10:05:00,26.3,22.7,30.25,SSW,207,0.0,1.0,86,0.00,,,0.00,Wunderground v.1.15,2013-12-27 16:05:00,
2013-12-27 10:10:00,26.7,22.8,30.25,SSW,207,0.0,6.0,85,0.00,,,0.00,Wunderground v.1.15,2013-12-27 16:10:00,
2013-12-27 10:15:00,27.0,23.1,30.25,SSW,194,1.0,6.0,85,0.00,,,0.00,Wunderground v.1.15,2013-12-27 16:15:00,
2013-12-27 10:20:00,27.3,23.1,30.25,South,190,1.0,1.0,84,0.00,,,0.00,Wunderground v.1.15,2013-12-27 16:20:00,
2013-12-27 10:30:00,28.3,23.8,30.24,SSW,211,1.0,4.0,83,0.00,,,0.00,Wunderground v.1.15,2013-12-27 16:30:00,
2013-12-27 10:35:00,28.8,24.0,30.24,SSW,207,3.0,4.0,82,0.00,,,0.00,Wunderground v.1.15,2013-12-27 16:35:00,
2013-12-27 10:40:00,29.0,23.9,30.24,South,187,4.0,9.0,81,0.00,,,0.00,Wunderground v.1.15,2013-12-27 16:40:00,
2013-12-27 10:45:00,29.2,24.1,30.24,SSW,193,5.0,9.0,81,0.00,,,0.00,Wunderground v.1.15,2013-12-27 16:45:00,
2013-12-27 10:50:00,29.5,24.1,30.24,SSW,198,5.0,5.0,80,0.00,,,0.00,Wunderground v.1.15,2013-12-27 16:50:00,
2013-12-27 10:55:00,29.7,24.0,30.24,SSW,211,5.0,7.0,79,0.00,,,0.00,Wunderground v.1.15,2013-12-27 16:55:00,
2013-12-27 11:00:00,30.0,24.6,30.24,SSW,193,5.0,7.0,80,0.00,,,0.00,Wunderground v.1.15,2013-12-27 17:00:00,
2013-12-27 11:10:00,30.7,25.0,30.23,SSW,209,4.0,4.0,79,0.00,,,0.00,Wunderground v.1.15,2013-12-27 17:10:00,
2013-12-27 11:15:00,31.3,25.2,30.23,SSW,207,4.0,4.0,78,0.00,,,0.00,Wunderground v.1.15,2013-12-27 17:15:00,
2013-12-27 11:20:00,32.0,25.6,30.23,SSW,194,3.0,6.0,77,0.00,,,0.00,Wunderground v.1.15,2013-12-27 17:20:00,
2013-12-27 11:25:00,32.5,25.8,30.22,South,180,4.0,6.0,76,0.00,,,0.00,Wunderground v.1.15,2013-12-27 17:25:00,
2013-12-27 11:30:00,32.9,25.8,30.22,SSW,207,5.0,5.0,75,0.00,,,0.00,Wunderground v.1.15,2013-12-27 17:30:00,
2013-12-27 11:35:00,33.7,26.6,30.22,SW,222,5.0,5.0,75,0.00,,,0.00,Wunderground v.1.15,2013-12-27 17:35:00,
2013-12-27 11:45:00,34.5,27.1,30.21,South,182,4.0,5.0,74,0.00,,,0.00,Wunderground v.1.15,2013-12-27 17:45:00,
2013-12-27 11:50:00,35.0,27.5,30.21,SSW,192,4.0,6.0,74,0.00,,,0.00,Wunderground v.1.15,2013-12-27 17:50:00,
2013-12-27 11:55:00,35.4,27.6,30.20,SSW,192,5.0,6.0,73,0.00,,,0.00,Wunderground v.1.15,2013-12-27 17:55:00,
2013-12-27 12:00:00,35.5,27.4,30.20,South,187,5.0,5.0,72,0.00,,,0.00,Wunderground v.1.15,2013-12-27 18:00:00,
2013-12-27 12:05:00,36.0,28.2,30.19,South,178,6.0,6.0,73,0.00,,,0.00,Wunderground v.1.15,2013-12-27 18:05:00,
2013-12-27 12:10:00,36.7,28.5,30.19,SSW,213,5.0,7.0,72,0.00,,,0.00,Wunderground v.1.15,2013-12-27 18:10:00,
2013-12-27 12:15:00,37.2,28.7,30.19,SSW,200,5.0,7.0,71,0.00,,,0.00,Wunderground v.1.15,2013-12-27 18:15:00,
2013-12-27 12:20:00,37.9,29.3,30.18,SSW,192,5.0,5.0,71,0.00,,,0.01,Wunderground v.1.15,2013-12-27 18:20:00,
2013-12-27 12:25:00,38.2,29.3,30.18,SSW,206,4.0,5.0,70,0.00,,,0.01,Wunderground v.1.15,2013-12-27 18:25:00,
2013-12-27 12:35:00,38.9,29.6,30.17,SSW,202,3.0,5.0,69,0.00,,,0.01,Wunderground v.1.15,2013-12-27 18:35:00,
2013-12-27 12:40:00,39.1,29.8,30.17,SSW,196,5.0,6.0,69,0.00,,,0.02,Wunderground v.1.15,2013-12-27 18:40:00,
2013-12-27 12:45:00,39.3,30.0,30.17,South,191,5.0,6.0,69,0.00,,,0.02,Wunderground v.1.15,2013-12-27 18:45:00,
2013-12-27 12:50:00,39.6,30.3,30.17,SSW,194,4.0,4.0,69,0.00,,,0.02,Wunderground v.1.15,2013-12-27 18:50:00,
2013-12-27 12:55:00,39.8,30.1,30.17,South,173,4.0,5.0,68,0.00,,,0.02,Wunderground v.1.15,2013-12-27 18:55:00,
2013-12-27 13:00:00,40.1,30.7,30.16,SW,214,4.0,4.0,69,0.00,,,0.03,Wunderground v.1.15,2013-12-27 19:00:00,
2013-12-27 13:05:00,40.4,30.7,30.16,SSW,194,4.0,4.0,68,0.00,,,0.03,Wunderground v.1.15,2013-12-27 19:05:00,
2013-12-27 13:15:00,40.9,31.1,30.15,South,170,4.0,4.0,68,0.00,,,0.03,Wunderground v.1.15,2013-12-27 19:15:00,
2013-12-27 13:20:00,41.2,31.1,30.14,SW,221,4.0,7.0,67,0.00,,,0.03,Wunderground v.1.15,2013-12-27 19:20:00,
2013-12-27 13:25:00,41.3,31.2,30.14,South,179,5.0,7.0,67,0.00,,,0.03,Wunderground v.1.15,2013-12-27 19:25:00,
2013-12-27 13:35:00,41.5,31.0,30.14,SSW,192,6.0,8.0,66,0.00,,,0.03,Wunderground v.1.15,2013-12-27 19:35:00,
2013-12-27 13:40:00,41.7,31.2,30.14,SSW,204,6.0,9.0,66,0.00,,,0.03,Wunderground v.1.15,2013-12-27 19:40:00,
2013-12-27 13:45:00,42.1,31.2,30.13,South,184,5.0,9.0,65,0.00,,,0.03,Wunderground v.1.15,2013-12-27 19:45:00,
2013-12-27 13:50:00,42.7,31.7,30.13,South,179,4.0,5.0,65,0.00,,,0.03,Wunderground v.1.15,2013-12-27 19:50:00,
2013-12-27 13:55:00,43.0,31.6,30.13,SW,219,3.0,5.0,64,0.00,,,0.03,Wunderground v.1.15,2013-12-27 19:55:00,
2013-12-27 14:00:00,43.2,31.8,30.13,SW,215,3.0,3.0,64,0.00,,,0.03,Wunderground v.1.15,2013-12-27 20:00:00,
2013-12-27 14:10:00,43.5,31.7,30.12,SSW,194,3.0,4.0,63,0.00,,,0.04,Wunderground v.1.15,2013-12-27 20:10:00,
2013-12-27 14:15:00,43.7,31.5,30.12,South,184,3.0,4.0,62,0.00,,,0.04,Wunderground v.1.15,2013-12-27 20:15:00,
2013-12-27 14:20:00,44.0,31.8,30.12,SSW,194,3.0,3.0,62,0.00,,,0.04,Wunderground v.1.15,2013-12-27 20:20:00,
2013-12-27 14:25:00,44.4,32.2,30.12,SSW,209,3.0,3.0,62,0.00,,,0.04,Wunderground v.1.15,2013-12-27 20:25:00,
2013-12-27 14:30:00,44.6,32.0,30.12,SSW,211,2.0,3.0,61,0.00,,,0.04,Wunderground v.1.15,2013-12-27 20:30:00,
2013-12-27 14:35:00,44.5,31.9,30.11,South,188,3.0,3.0,61,0.00,,,0.04,Wunderground v.1.15,2013-12-27 20:35:00,
2013-12-27 14:45:00,44.4,31.8,30.11,WSW,245,3.0,3.0,61,0.00,,,0.04,Wunderground v.1.15,2013-12-27 20:45:00,
2013-12-27 14:55:00,44.3,31.7,30.11,SW,233,3.0,11.0,61,0.00,,,0.04,Wunderground v.1.15,2013-12-27 20:55:00,
2013-12-27 15:00:00,44.5,31.9,30.11,SSW,204,3.0,4.0,61,0.00,,,0.04,Wunderground v.1.15,2013-12-27 21:00:00,
2013-12-27 15:05:00,44.5,31.9,30.11,SSW,202,4.0,6.0,61,0.00,,,0.04,Wunderground v.1.15,2013-12-27 21:05:00,
2013-12-27 15:10:00,44.5,31.9,30.11,SW,219,4.0,6.0,61,0.00,,,0.04,Wunderground v.1.15,2013-12-27 21:10:00,
2013-12-27 15:15:00,44.2,31.6,30.11,SW,216,3.0,6.0,61,0.00,,,0.04,Wunderground v.1.15,2013-12-27 21:15:00,
2013-12-27 15:25:00,44.0,31.8,30.11,SSW,198,2.0,3.0,62,0.00,,,0.04,Wunderground v.1.15,2013-12-27 21:25:00,
2013-12-27 15:30:00,44.0,31.8,30.11,SSW,207,3.0,4.0,62,0.00,,,0.04,Wunderground v.1.15,2013-12-27 21:30:00,
2013-12-27 15:35:00,44.1,31.5,30.11,SSW,209,3.0,7.0,61,0.00,,,0.04,Wunderground v.1.15,2013-12-27 21:35:00,
2013-12-27 15:40:00,44.1,31.5,30.11,SSW,212,3.0,4.0,61,0.00,,,0.04,Wunderground v.1.15,2013-12-27 21:40:00,
2013-12-27 15:45:00,44.0,31.4,30.11,South,178,2.0,5.0,61,0.00,,,0.04,Wunderground v.1.15,2013-12-27 21:45:00,
2013-12-27 15:50:00,44.0,31.4,30.11,SSW,202,2.0,6.0,61,0.00,,,0.04,Wunderground v.1.15,2013-12-27 21:50:00,
2013-12-27 16:00:00,43.9,31.3,30.10,SW,222,2.0,2.0,61,0.00,,,0.04,Wunderground v.1.15,2013-12-27 22:00:00,
2013-12-27 16:05:00,43.8,31.6,30.10,SSW,204,2.0,2.0,62,0.00,,,0.04,Wunderground v.1.15,2013-12-27 22:05:00,
2013-12-27 16:10:00,43.8,31.6,30.10,SW,229,2.0,2.0,62,0.00,,,0.04,Wunderground v.1.15,2013-12-27 22:10:00,
2013-12-27 16:15:00,43.7,31.5,30.10,SSW,192,2.0,4.0,62,0.00,,,0.04,Wunderground v.1.15,2013-12-27 22:15:00,
2013-12-27 16:20:00,43.6,31.4,30.10,South,184,2.0,3.0,62,0.00,,,0.04,Wunderground v.1.15,2013-12-27 22:20:00,
2013-12-27 16:25:00,43.5,31.3,30.10,SSW,200,3.0,7.0,62,0.00,,,0.04,Wunderground v.1.15,2013-12-27 22:25:00,
2013-12-27 16:30:00,43.6,31.4,30.10,SSW,211,3.0,7.0,62,0.00,,,0.04,Wunderground v.1.15,2013-12-27 22:30:00,
2013-12-27 16:35:00,43.5,31.3,30.10,South,169,3.0,7.0,62,0.00,,,0.04,Wunderground v.1.15,2013-12-27 22:35:00,
2013-12-27 16:45:00,43.3,31.1,30.10,SW,219,2.0,7.0,62,0.00,,,0.04,Wunderground v.1.15,2013-12-27 22:45:00,
2013-12-27 16:50:00,43.2,31.1,30.10,SW,215,2.0,4.0,62,0.00,,,0.04,Wunderground v.1.15,2013-12-27 22:50:00,
2013-12-27 16:55:00,43.1,31.4,30.11,SW,233,2.0,4.0,63,0.00,,,0.04,Wunderground v.1.15,2013-12-27 22:55:00,
2013-12-27 17:00:00,43.1,31.0,30.11,SW,223,2.0,3.0,62,0.00,,,0.04,Wunderground v.1.15,2013-12-27 23:00:00,
2013-12-27 17:10:00,43.2,31.1,30.11,South,190,1.0,1.0,62,0.00,,,0.04,Wunderground v.1.15,2013-12-27 23:10:00,
2013-12-27 17:15:00,43.3,31.1,30.11,South,188,2.0,3.0,62,0.00,,,0.04,Wunderground v.1.15,2013-12-27 23:15:00,
2013-12-27 17:20:00,43.5,30.9,30.11,SW,215,2.0,2.0,61,0.00,,,0.04,Wunderground v.1.15,2013-12-27 23:20:00,
2013-12-27 17:25:00,43.5,30.9,30.11,South,169,2.0,4.0,61,0.00,,,0.04,Wunderground v.1.15,2013-12-27 23:25:00,
2013-12-27 17:30:00,43.5,30.9,30.11,SSW,202,1.0,1.0,61,0.00,,,0.04,Wunderground v.1.15,2013-12-27 23:30:00,
2013-12-27 17:35:00,43.5,30.9,30.11,SSW,196,2.0,2.0,61,0.00,,,0.04,Wunderground v.1.15,2013-12-27 23:35:00,
2013-12-27 17:45:00,43.5,30.9,30.11,SSW,194,2.0,4.0,61,0.00,,,0.04,Wunderground v.1.15,2013-12-27 23:45:00,
2013-12-27 17:50:00,43.4,30.8,30.11,SSE,162,2.0,2.0,61,0.00,,,0.04,Wunderground v.1.15,2013-12-27 23:50:00,
2013-12-27 17:55:00,43.3,30.7,30.11,SW,215,1.0,2.0,61,0.00,,,0.04,Wunderground v.1.15,2013-12-27 23:55:00,
2013-12-27 18:00:00,43.2,31.1,30.11,SW,218,2.0,7.0,62,0.00,,,0.04,Wunderground v.1.15,2013-12-28 00:00:00,
2013-12-27 18:05:00,43.1,31.0,30.11,SW,218,2.0,7.0,62,0.00,,,0.04,Wunderground v.1.15,2013-12-28 00:05:00,
2013-12-27 18:10:00,42.9,31.2,30.11,SSW,198,3.0,3.0,63,0.00,,,0.04,Wunderground v.1.15,2013-12-28 00:10:00,
2013-12-27 18:20:00,42.9,31.2,30.11,SSW,209,4.0,7.0,63,0.00,,,0.04,Wunderground v.1.15,2013-12-28 00:20:00,
2013-12-27 18:25:00,42.8,31.1,30.11,SW,233,4.0,7.0,63,0.00,,,0.04,Wunderground v.1.15,2013-12-28 00:25:00,
2013-12-27 18:30:00,42.7,31.0,30.11,SW,219,3.0,3.0,63,0.00,,,0.04,Wunderground v.1.15,2013-12-28 00:30:00,
2013-12-27 18:35:00,42.3,31.0,30.12,SW,222,2.0,6.0,64,0.00,,,0.04,Wunderground v.1.15,2013-12-28 00:35:00,
2013-12-27 18:40:00,42.1,30.8,30.12,SW,223,1.0,1.0,64,0.00,,,0.04,Wunderground v.1.15,2013-12-28 00:40:00,
2013-12-27 18:45:00,42.0,31.1,30.12,SW,217,1.0,1.0,65,0.00,,,0.04,Wunderground v.1.15,2013-12-28 00:45:00,
2013-12-27 18:50:00,41.8,30.9,30.12,SSW,197,1.0,1.0,65,0.00,,,0.04,Wunderground v.1.15,2013-12-28 00:50:00,
2013-12-27 19:00:00,41.6,31.1,30.13,SSW,205,0.0,0.0,66,0.00,,,0.04,Wunderground v.1.15,2013-12-28 01:00:00,
2013-12-27 19:05:00,41.5,31.0,30.13,SW,218,0.0,0.0,66,0.00,,,0.04,Wunderground v.1.15,2013-12-28 01:05:00,
2013-12-27 19:10:00,41.4,30.9,30.13,SSW,207,0.0,0.0,66,0.00,,,0.04,Wunderground v.1.15,2013-12-28 01:10:00,
2013-12-27 19:15:00,41.5,31.0,30.13,SSW,207,1.0,1.0,66,0.00,,,0.04,Wunderground v.1.15,2013-12-28 01:15:00,
2013-12-27 19:20:00,41.2,30.7,30.13,SSW,202,1.0,1.0,66,0.00,,,0.04,Wunderground v.1.15,2013-12-28 01:20:00,
2013-12-27 19:25:00,41.0,30.9,30.13,WSW,241,0.0,1.0,67,0.00,,,0.04,Wunderground v.1.15,2013-12-28 01:25:00,
2013-12-27 19:30:00,40.9,30.8,30.13,SW,229,0.0,0.0,67,0.00,,,0.04,Wunderground v.1.15,2013-12-28 01:30:00,
2013-12-27 19:40:00,40.7,30.6,30.13,SW,219,0.0,0.0,67,0.00,,,0.04,Wunderground v.1.15,2013-12-28 01:40:00,
2013-12-27 19:45:00,40.6,30.9,30.13,SW,219,0.0,0.0,68,0.00,,,0.04,Wunderground v.1.15,2013-12-28 01:45:00,
2013-12-27 19:50:00,40.6,30.9,30.13,SW,217,0.0,0.0,68,0.00,,,0.04,Wunderground v.1.15,2013-12-28 01:50:00,
2013-12-27 19:55:00,40.4,30.7,30.13,SW,230,0.0,0.0,68,0.00,,,0.04,Wunderground v.1.15,2013-12-28 01:55:00,
2013-12-27 20:00:00,40.2,30.5,30.13,SW,234,0.0,0.0,68,0.00,,,0.04,Wunderground v.1.15,2013-12-28 02:00:00,
2013-12-27 20:10:00,39.9,30.5,30.13,SSW,213,0.0,0.0,69,0.00,,,0.04,Wunderground v.1.15,2013-12-28 02:10:00,
2013-12-27 20:15:00,39.9,30.5,30.13,SW,227,1.0,1.0,69,0.00,,,0.04,Wunderground v.1.15,2013-12-28 02:15:00,
2013-12-27 20:20:00,39.7,30.4,30.13,SW,214,1.0,1.0,69,0.00,,,0.04,Wunderground v.1.15,2013-12-28 02:20:00,
2013-12-27 20:25:00,39.6,30.6,30.12,SW,226,1.0,1.0,70,0.00,,,0.04,Wunderground v.1.15,2013-12-28 02:25:00,
2013-12-27 20:30:00,39.6,30.6,30.12,SSW,193,0.0,0.0,70,0.00,,,0.04,Wunderground v.1.15,2013-12-28 02:30:00,
2013-12-27 20:35:00,39.7,30.7,30.13,SW,226,0.0,2.0,70,0.00,,,0.04,Wunderground v.1.15,2013-12-28 02:35:00,
2013-12-27 20:40:00,39.9,30.9,30.12,SW,215,2.0,2.0,70,0.00,,,0.04,Wunderground v.1.15,2013-12-28 02:40:00,
2013-12-27 20:50:00,39.8,30.8,30.12,SW,226,2.0,2.0,70,0.00,,,0.04,Wunderground v.1.15,2013-12-28 02:50:00,
2013-12-27 20:55:00,39.5,30.5,30.13,SW,218,1.0,2.0,70,0.00,,,0.04,Wunderground v.1.15,2013-12-28 02:55:00,
2013-12-27 21:00:00,39.2,30.6,30.13,SW,215,1.0,1.0,71,0.00,,,0.04,Wunderground v.1.15,2013-12-28 03:00:00,
2013-12-27 21:05:00,38.9,30.3,30.13,SW,217,1.0,1.0,71,0.00,,,0.04,Wunderground v.1.15,2013-12-28 03:05:00,
2013-12-27 21:10:00,38.9,30.6,30.13,SW,225,0.0,0.0,72,0.00,,,0.04,Wunderground v.1.15,2013-12-28 03:10:00,
2013-12-27 21:20:00,38.7,30.4,30.13,SSW,210,0.0,0.0,72,0.00,,,0.04,Wunderground v.1.15,2013-12-28 03:20:00,
2013-12-27 21:25:00,38.4,30.5,30.13,SW,234,0.0,0.0,73,0.00,,,0.04,Wunderground v.1.15,2013-12-28 03:25:00,
2013-12-27 21:30:00,38.4,30.5,30.13,SSW,203,0.0,0.0,73,0.00,,,0.04,Wunderground v.1.15,2013-12-28 03:30:00,
2013-12-27 21:35:00,38.3,30.4,30.13,SSW,200,0.0,0.0,73,0.00,,,0.04,Wunderground v.1.15,2013-12-28 03:35:00,
2013-12-27 21:40:00,38.1,30.2,30.13,SSW,205,0.0,0.0,73,0.00,,,0.04,Wunderground v.1.15,2013-12-28 03:40:00,
2013-12-27 21:45:00,38.0,30.4,30.13,SSW,205,0.0,0.0,74,0.00,,,0.04,Wunderground v.1.15,2013-12-28 03:45:00,
2013-12-27 21:55:00,37.9,30.4,30.13,SSW,213,0.0,0.0,74,0.00,,,0.04,Wunderground v.1.15,2013-12-28 03:55:00,
2013-12-27 22:00:00,37.8,30.3,30.13,SW,217,0.0,0.0,74,0.00,,,0.04,Wunderground v.1.15,2013-12-28 04:00:00,
2013-12-27 22:10:00,37.6,30.1,30.13,SW,217,0.0,0.0,74,0.00,,,0.04,Wunderground v.1.15,2013-12-28 04:10:00,
2013-12-27 22:15:00,37.5,30.3,30.12,SW,234,0.0,0.0,75,0.00,,,0.04,Wunderground v.1.15,2013-12-28 04:15:00,
2013-12-27 22:20:00,37.5,30.3,30.12,SSW,213,0.0,0.0,75,0.00,,,0.04,Wunderground v.1.15,2013-12-28 04:20:00,
2013-12-27 22:25:00,37.5,30.0,30.12,SSW,200,0.0,0.0,74,0.00,,,0.04,Wunderground v.1.15,2013-12-28 04:25:00,
2013-12-27 22:30:00,37.3,30.1,30.12,SW,225,0.0,0.0,75,0.00,,,0.04,Wunderground v.1.15,2013-12-28 04:30:00,
2013-12-27 22:35:00,37.1,29.9,30.12,SW,222,0.0,0.0,75,0.00,,,0.04,Wunderground v.1.15,2013-12-28 04:35:00,
2013-12-27 22:40:00,36.9,29.7,30.12,SW,220,0.0,0.0,75,0.00,,,0.04,Wunderground v.1.15,2013-12-28 04:40:00,
2013-12-27 22:45:00,36.8,29.9,30.12,SW,215,0.0,0.0,76,0.00,,,0.04,Wunderground v.1.15,2013-12-28 04:45:00,
2013-12-27 22:50:00,36.9,30.0,30.12,SSW,213,0.0,0.0,76,0.00,,,0.04,Wunderground v.1.15,2013-12-28 04:50:00,
2013-12-27 23:00:00,37.0,30.1,30.12,SSW,202,0.0,0.0,76,0.00,,,0.04,Wunderground v.1.15,2013-12-28 05:00:00,
2013-12-27 23:05:00,36.9,30.0,30.12,SW,218,0.0,0.0,76,0.00,,,0.04,Wunderground v.1.15,2013-12-28 05:05:00,
2013-12-27 23:10:00,36.7,29.8,30.12,SW,214,0.0,0.0,76,0.00,,,0.04,Wunderground v.1.15,2013-12-28 05:10:00,
2013-12-27 23:15:00,36.6,29.7,30.11,SSW,213,0.0,0.0,76,0.00,,,0.04,Wunderground v.1.15,2013-12-28 05:15:00,
2013-12-27 23:20:00,36.6,29.7,30.11,SSW,202,0.0,0.0,76,0.00,,,0.04,Wunderground v.1.15,2013-12-28 05:20:00,
2013-12-27 23:30:00,36.6,29.7,30.11,SW,220,0.0,0.0,76,0.00,,,0.04,Wunderground v.1.15,2013-12-28 05:30:00,
2013-12-27 23:35:00,36.5,29.7,30.11,SW,220,0.0,0.0,76,0.00,,,0.04,Wunderground v.1.15,2013-12-28 05:35:00,
2013-12-27 23:40:00,36.4,29.6,30.11,SW,219,0.0,0.0,76,0.00,,,0.04,Wunderground v.1.15,2013-12-28 05:40:00,
2013-12-27 23:45:00,36.4,29.9,30.11,SW,214,0.0,0.0,77,0.00,,,0.04,Wunderground v.1.15,2013-12-28 05:45:00,
2013-12-27 23:50:00,36.4,29.9,30.10,SSW,209,0.0,0.0,77,0.00,,,0.04,Wunderground v.1.15,2013-12-28 05:50:00,
2013-12-27 23:55:00,36.4,29.6,30.10,SSW,209,0.0,0.0,76,0.00,,,0.04,Wunderground v.1.15,2013-12-28 05:55:00,